Regional Weather Roundup
Issued by NWS

Home | Current Version | Previous Version | Text Only | Print | Product List | Glossary Off
Versions: 1 2 3 4 5 6 7 8 9 10 11 12 13 14 15 16 17 18 19 20 21 22 23 24 25 26 27 28 29 30 31 32 33 34 35 36 37 38 39 40 41 42 43 44 45 46 47 48 49 50

397
ASUS43 KFSD 210802
RWRSD

WEATHER ROUNDUP FOR SOUTH DAKOTA
NATIONAL WEATHER SERVICE SIOUX FALLS SD
200 AM CST SAT JAN 21 2017

NOTE: "FAIR" INDICATES FEW OR NO CLOUDS BELOW 12,000 FEET WITH NO
SIGNIFICANT WEATHER AND/OR OBSTRUCTIONS TO VISIBILITY.


SDZ001>005-009-010-012>017-210900-
NORTHWEST AND NORTH CENTRAL SOUTH DAKOTA

CITY           SKY/WX    TMP DP  RH WIND       PRES   REMARKS
BUFFALO          N/A     33  31  92 W10       29.25F WCI  25
FAITH            N/A     25  23  92 NW8       29.30S WCI  16
MOBRIDGE       FOG       24  20  84 SE5       29.28F VSB 1   WCI  18
$$

SDZ012>016-024>037-041>051-057-063-072>074-210900-
SOUTHWEST AND SOUTH CENTRAL SOUTH DAKOTA

CITY           SKY/WX    TMP DP  RH WIND       PRES   REMARKS
RAPID CTY ARPT CLOUDY    34  31  88 N15       29.34F WCI  24
PIERRE         CLOUDY    26  24  92 NW9       29.31F WCI  17
CUSTER         CLOUDY    28  25  88 CALM      29.31F
ELLSWORTH AFB  CLOUDY    34  32  93 N17       29.33F WCI  23
PHILIP         CLOUDY    25  24  96 W10       29.33S WCI  15
PINE RIDGE     CLOUDY    35  34  96 W7        29.36F WCI  29
WINNER         CLOUDY    28  25  88 NE5       29.33F WCI  23
$$

SDZ004>011-016>023-039-040-210900-
NORTHEAST SOUTH DAKOTA

CITY           SKY/WX    TMP DP  RH WIND       PRES   REMARKS
ABERDEEN       CLOUDY    30  27  88 NW6       29.34F FOG     WCI  24
WATERTOWN      FOG       34  34 100 SE9       29.34F VSB 1/4 WCI  27
BROOKINGS      LGT RAIN  35  34  96 SE12      29.35F VSB 1   WCI  27
SISSETON         N/A     34  34 100 SE12      29.38F WCI  25
$$

SDZ017-020-022-023-036>040-048>070-210900-
SOUTHEAST SOUTH DAKOTA

CITY           SKY/WX    TMP DP  RH WIND       PRES   REMARKS
SIOUX FALLS    CLOUDY    36  36 100 SE6       29.36F FOG
HURON          FOG       37  37 100 S5        29.33S VSB 1/2
CHAMBERLAIN    CLOUDY    23  23  99 W6        29.35R WCI  16
MITCHELL       CLOUDY    38  38 100 S6        29.34F FOG
YANKTON        CLOUDY    37  36  93 CALM      29.35S
$$

ABBREVIATIONS USED IN REMARKS
   TC - TEMPERATURE IN CELSIUS
  WCI - WIND CHILL INDEX
   HX - HEAT INDEX
  VSB - VISIBILITY





USA.gov is the U.S. government's official web portal to all federal, state and local government web resources and services.